DW2959 Murcia ES current weather conditions

sailwx.info

Wind from 178 at 12 knots

Air temperature 24.4° C
Dewpoint 11.7° C

Last reported at 2015-Apr-26 14:40 UTC.
Time now 2015-Apr-26 15:46 UTC

Location: N 38°00' W 001°02'.
View on Google Maps.

See reports from other nearby stations

  
Tides and Currents Weather Stations Pressure Air Temp Water Temp Dewpoint Dewpoint Depression Visibility Wind Speed Wind Dir Waves Ship Positions
date/time (UTC)wind fromknots sea level pressurealtimeterstation pressurevisibilityair tempwater tempwave heightnotes
2015-Apr-26 14:40 178 12 24.4
2015-Apr-26 14:25 166 8 25.6
2015-Apr-26 14:10 167 8 26.1
2015-Apr-26 13:55 158 6 26.1
2015-Apr-26 13:40 166 3 26.1
2015-Apr-26 13:25 087 1 25.6
2015-Apr-26 13:10 131 5 25.6
2015-Apr-26 12:55 165 5 25.6
2015-Apr-26 12:40 132 6 26.1
2015-Apr-26 12:25 165 7 26.1
2015-Apr-26 12:10 134 4 26.1
2015-Apr-26 11:55 157 5 26.1
2015-Apr-26 11:40 324 5 25.6
2015-Apr-26 11:25 275 4 25.6
2015-Apr-26 11:10 222 3 25.0
2015-Apr-26 10:55 198 1 25.0
2015-Apr-26 10:40 298 3 24.4
2015-Apr-26 10:25 221 2 23.9
2015-Apr-26 09:55 269 4 23.3
2015-Apr-26 09:40 269 2 22.8
2015-Apr-26 09:25 271 0 22.2
2015-Apr-26 09:10 270 0 21.7
2015-Apr-26 08:55 270 0 21.7
2015-Apr-26 08:40 270 2 21.1
2015-Apr-26 08:25 265 2 20.6
2015-Apr-26 08:10 232 1 20.0
2015-Apr-26 07:55 241 1 19.4
2015-Apr-26 07:40 224 0 18.9
2015-Apr-26 07:25 005 0 18.3
2015-Apr-26 07:10 005 17.8
2015-Apr-26 06:55 009 17.2
2015-Apr-26 06:40 005 16.7
2015-Apr-26 06:25 009 16.1
2015-Apr-26 06:10
2015-Apr-26 05:55
2015-Apr-26 05:39
2015-Apr-26 05:24
2015-Apr-26 05:09
2015-Apr-26 04:54
2015-Apr-26 04:39
2015-Apr-26 04:24
2015-Apr-26 04:09
2015-Apr-26 03:54
2015-Apr-26 03:39
2015-Apr-26 03:24
2015-Apr-26 03:09
2015-Apr-26 02:54
2015-Apr-26 02:39 360 16.7
2015-Apr-26 02:24 360 17.2
2015-Apr-26 02:08 360 17.2
2015-Apr-26 01:53 360 17.2
2015-Apr-26 01:38 360 17.2
2015-Apr-26 01:23 360 0 16.7
2015-Apr-26 01:08 360 0 17.2
2015-Apr-26 00:53 360 2 17.2
2015-Apr-26 00:38 093 17.8
2015-Apr-26 00:23 093 17.8
2015-Apr-26 00:09 093 17.8
2015-Apr-25 23:53 093 17.8
2015-Apr-25 23:38 092 0 18.3
2015-Apr-25 23:23 094 18.9
2015-Apr-25 23:08 094 18.9
2015-Apr-25 22:53 094 19.4
2015-Apr-25 22:38 094 0 19.4
2015-Apr-25 22:23 094 1 19.4
2015-Apr-25 22:08 350 19.4
2015-Apr-25 21:53 340 18.9
2015-Apr-25 21:38 340 19.4
2015-Apr-25 21:23 340 19.4
2015-Apr-25 21:08 340 20.0
2015-Apr-25 20:53 340 20.0
2015-Apr-25 20:38 340 20.6
2015-Apr-25 20:23 340 21.1
2015-Apr-25 20:07 340 21.7
2015-Apr-25 19:52 340 21.7
2015-Apr-25 19:37 340 21.7
2015-Apr-25 19:22 339 22.2
2015-Apr-25 19:07 339 2 22.8
2015-Apr-25 18:52 032 0 22.8
2015-Apr-25 18:37 032 0 23.3
2015-Apr-25 18:22 032 3 23.3
2015-Apr-25 18:07 184 1 23.3
2015-Apr-25 17:52 168 6 23.3
2015-Apr-25 17:37 168 8 23.3
2015-Apr-25 17:22 170 8 23.9
2015-Apr-25 17:07 175 8 23.9
2015-Apr-25 16:52 175 9 23.9
2015-Apr-25 16:37 178 9 24.4
2015-Apr-25 16:22 171 6 24.4
2015-Apr-25 16:07 156 9 25.0
2015-Apr-25 15:52 165 9 25.0
2015-Apr-25 15:37 187 8 25.0
2015-Apr-25 15:22 173 8 25.6
2015-Apr-25 15:07 180 7 26.1
2015-Apr-25 14:52 179 5 26.1
2015-Apr-25 14:37 221 1 26.7
2015-Apr-25 14:22 225 1 26.7
2015-Apr-25 14:07 349 1 26.7
2015-Apr-25 13:52 316 26.1
2015-Apr-25 13:37 271 0 26.1
2015-Apr-25 13:22 268 0 26.1
2015-Apr-25 13:07 261 1 26.1
2015-Apr-25 12:52 252 1 26.1
2015-Apr-25 12:37 251 3 25.6
2015-Apr-25 12:22 279 4 25.6
2015-Apr-25 12:06 266 4 25.6
2015-Apr-25 11:52 294 2 25.6
2015-Apr-25 11:36 327 5 25.6
2015-Apr-25 11:21 284 5 25.6
2015-Apr-25 11:06 294 6 25.6
2015-Apr-25 10:51 288 6 25.0
2015-Apr-25 10:36 273 6 25.0
2015-Apr-25 10:21 297 6 25.0
2015-Apr-25 10:06 261 6 24.4
2015-Apr-25 09:51 296 6 24.4
2015-Apr-25 09:36 280 6 23.9
2015-Apr-25 09:21 275 6 22.8
2015-Apr-25 09:06 273 4 22.2
2015-Apr-25 08:53 277 3 21.7
2015-Apr-25 08:36 248 2 20.6
2015-Apr-25 08:21 271 4 20.0
2015-Apr-25 08:06 267 2 18.9
2015-Apr-25 07:51 244 2 17.2
2015-Apr-25 07:21 263 1 16.1
2015-Apr-25 07:06 256 1 15.6
2015-Apr-25 06:51 248 1 15.6
2015-Apr-25 06:36 239 1 15.0
2015-Apr-25 06:21 237 0 13.9
2015-Apr-25 06:06 238 13.3
2015-Apr-25 05:51 238 13.3
2015-Apr-25 05:36
2015-Apr-25 05:21
2015-Apr-25 05:06
2015-Apr-25 04:51
2015-Apr-25 04:36
2015-Apr-25 04:20
2015-Apr-25 04:05
2015-Apr-25 03:50
2015-Apr-25 03:35
2015-Apr-25 03:20
2015-Apr-25 03:05
2015-Apr-25 02:50
2015-Apr-25 02:35 231 14.4
2015-Apr-25 02:20 231 15.0
2015-Apr-25 02:05 231 15.0
2015-Apr-25 01:50 231 15.0
2015-Apr-25 01:35 231 15.0
2015-Apr-25 01:20 231 15.0
2015-Apr-25 01:05 231 15.6
2015-Apr-25 00:50 231 15.6
2015-Apr-25 00:35 231 0 15.6
2015-Apr-25 00:20 231 15.6
2015-Apr-25 00:05 231 16.1
2015-Apr-24 23:50 231 2 16.1
2015-Apr-24 23:35 230 1 16.1
2015-Apr-24 23:20 230 16.7
2015-Apr-24 23:05 230 0 16.7
2015-Apr-24 22:50 221 1 16.7
2015-Apr-24 22:35 202 1 16.7
2015-Apr-24 22:20 067 17.2
2015-Apr-24 22:05 067 17.2
2015-Apr-24 21:50 067 0 17.2
2015-Apr-24 21:34 067 0 17.2
2015-Apr-24 21:19 070 2 17.2
2015-Apr-24 21:04 061 1 17.8
2015-Apr-24 20:49 069 0 17.8
2015-Apr-24 20:34 058 2 18.3
2015-Apr-24 20:19 077 2 18.9
2015-Apr-24 20:04 094 3 18.9
2015-Apr-24 19:49 086 2 18.9
2015-Apr-24 19:34 028 3 19.4
2015-Apr-24 19:19 084 2 19.4
2015-Apr-24 19:04 075 1 20.0
2015-Apr-24 18:49 105 3 20.6
2015-Apr-24 18:34 082 2 20.6
2015-Apr-24 18:19 109 1 21.1
2015-Apr-24 18:04 097 4 21.1
2015-Apr-24 17:49 091 4 21.7
2015-Apr-24 17:34 102 1 22.2
2015-Apr-24 17:19 162 2 22.2
2015-Apr-24 17:04 163 3 22.8
2015-Apr-24 16:49 148 3 23.3
2015-Apr-24 16:34 101 5 23.3
2015-Apr-24 16:19 067 1 24.4
2015-Apr-24 16:04 100 2 24.4
2015-Apr-24 15:49 124 2 23.9
2015-Apr-24 15:34 136 4 24.4
2015-Apr-24 15:19 113 2 25.0
2015-Apr-24 15:03 144 4 25.0